Location: Bannatyne
(13.0833°N, 59.5333°W)
Time: 05:07:01
(UTC+00:00)

ATLAS 5 CENTAUR R/B - Pass Details

Date: 18 October 2019
Orbit: 268 x 13003 km, 20.1° (Epoch: 20 November)

Event Time Altitude Azimuth Distance (km) Brightness Sun altitude
Rises 21:58:03 0° 224° (SW) 2,516 5.2 -5.8°
Reaches altitude 10° 21:59:33 10° 214° (SW) 1,957 4.3 -6.1°
Maximum altitude 22:03:33 38° 143° (SE) 1,596 2.9 -7.1°
Enters shadow 22:15:50 11° 81° (E) 6,025 5.4 -10.0°
